{"data":{"norad_id":66757,"intl_designator":"2025-276CV","name":"PIAST-S2","alt_names":[],"object_type":"PAYLOAD","status":"ACTIVE","operator":null,"country":"POL","launch_date":"2025-11-28","launch_site_code":"AFWTR","launch_vehicle":null,"mission":null,"orbit_class":"UNKNOWN","rcs_meters":null,"size_class":null,"mass_kg":null,"dimensions":null,"purposes":[],"wikipedia_slug":null,"has_3d_model":false,"image_url":null,"decayed_at":null,"tle_current":{"epoch":"2026-09-20T21:47:34.053792Z","epoch_age_seconds":82908,"freshness":"FRESH","line1":"1 66757U 25276CV  26263.90803303  .00003217  00000+0  14668-3 0  9998","line2":"2 66757  97.4135 336.2309 0001638  36.5777 323.5571 15.21358400 44981","mean_motion":15.213584,"eccentricity":0.0001638,"inclination_deg":97.4135,"raan_deg":336.2309,"arg_perigee_deg":36.5777,"mean_anomaly_deg":323.5571,"bstar":0.00014668,"rev_number":4498,"period_min":94.652252881372,"perigee_km":500.61534015944,"apogee_km":502.86918860646,"semimajor_km":6879.8792643829,"source":"CELESTRAK","updated_at":"2026-09-21T09:00:16.181690Z"}}}